STARLINK-1876 (47161 NORAD) Tracking and Keplerian Element Data
This shows tracking and keplerian element data for the satellite.
Feedback or suggestion? Click here.
Element | Value |
Catalog | 47161 |
Name | STARLINK-1876 |
Epoch Orbit | 969 |
Epoch Day | 21.16668981 |
Epoch Year | 2021 |
RAAN | 72.9027 |
Inclination | 53.0549 |
Eccentricity | 0.0001562 |
Argument of Perigee | 49.336 |
Mean Anonmoly | 10.6316 |
Mean Motion | 15.62764067 |
Decay Rate | 3.233E-05 |
L1 | 1 47161U 20088AR 21021.16668981 .00003233 00000-0 41113-4 0 9993 |
L2 | 2 47161 53.0549 72.9027 0001562 49.3360 10.6316 15.62764067 9698 |
Live tracking and technical data element details for STARLINK-1876 (NORAD 47161). STARLINK-1876 can be tracked NOW for your location showing map with azimuth and elevation plus other details from your city location.
Track the satellite on the map from your city or location and see movement details for azimuth, elevation, latitude, longitude, range, height, and movement on the map or in text.
IsCatalogInMostPopularTable: catalog: 47161, numindb: 21
Update: records affected: 1
GetName: 47161 STARLINK-1876
Hit Count: updated at: Sat, 23 Jan 2021 16:54:35 GMT